Miramar MCAS, CA

8:47 AM PDT on April 27, 2017 (GMT -0700)
Miramar Marine Corps Air Station-Mitscher

Weather History for KNKX - January, 2013

Change the Weather History Date:

Tuesday, January 8, 2013

  Actual Average Record
Temperature  
Mean Temperature 55 °F -  
Max Temperature 71 °F 64 °F 80 °F (2007)
Min Temperature 39 °F 44 °F 33 °F (2000)
Degree Days  
Heating Degree Days 10    
Growing Degree Days 5 (Base 50)    
Moisture  
Dew Point 37 °F    
Average Humidity 60    
Maximum Humidity 83    
Minimum Humidity 23    
Precipitation  
Precipitation 0.00 in - - ()
Sea Level Pressure  
Sea Level Pressure 30.06 in    
Wind  
Wind Speed 5 mph (NE)    
Max Wind Speed 9 mph    
Max Gust Speed -    
Visibility 10 miles    
Events      
Averages and records for this station are not official NWS values.
T = Trace of Precipitation, MM = Missing Value Source: NWS Daily Summary

Daily Weather History Graph

Daily Weather History Graph

Search for Another Location

Airport or City:

Trip Planner

Search our weather history database for the weather conditions in past years. The results will help you decide how hot, cold, wet, or windy it might be!

Date:

Astronomy

Jan. 08, 2013 Rise Set
Actual Time 6:52 AM PST 4:59 PM PST
Civil Twilight 6:24 AM PST 5:26 PM PST
Nautical Twilight 5:54 AM PST 5:56 PM PST
Astronomical Twilight 5:24 AM PST 6:26 PM PST
Moon 3:31 AM PST (1/8) 2:05 PM PST (1/8)
Length of Visible Light 11h 01m
Length of Day
10h 07m
Waning Crescent, 13% of the Moon is Illuminated
Jan 8
Waning Crescent
Jan 11
New
Jan 18
First Quarter
Jan 26
Full
Feb 3
Last Quarter

Hourly Weather History & Observations

Time (PST) Temp. Windchill Dew Point Humidity Pressure Visibility Wind Dir Wind Speed Gust Speed Precip Events Conditions
12:55 AM 44.1 °F 40.1 °F 36.0 °F 73% 30.02 in 10.0 mi East 6.9 mph - N/A   Clear
1:55 AM 43.0 °F 37.7 °F 35.1 °F 74% 30.04 in 10.0 mi ENE 9.2 mph - N/A   Clear
2:55 AM 42.1 °F 40.2 °F 35.1 °F 76% 30.02 in 10.0 mi East 3.5 mph - N/A   Clear
3:55 AM 43.0 °F 41.3 °F 34.0 °F 71% 30.00 in 10.0 mi ENE 3.5 mph - N/A   Clear
4:55 AM 43.0 °F 39.5 °F 33.1 °F 68% 30.02 in 10.0 mi ENE 5.8 mph - N/A   Clear
5:55 AM 39.9 °F 37.8 °F 30.9 °F 70% 30.04 in 10.0 mi NNE 3.5 mph - N/A   Clear
6:55 AM 41.0 °F 37.1 °F 33.1 °F 73% 30.06 in 10.0 mi ENE 5.8 mph - N/A   Partly Cloudy
7:55 AM 48.0 °F - 34.0 °F 58% 30.08 in 10.0 mi Calm Calm - N/A   Partly Cloudy
8:55 AM 57.0 °F - 41.0 °F 55% 30.10 in 10.0 mi NNE 3.5 mph - N/A   Partly Cloudy
9:55 AM 63.0 °F - 33.1 °F 33% 30.10 in 10.0 mi Calm Calm - N/A   Partly Cloudy
10:55 AM 66.0 °F - 28.9 °F 25% 30.08 in 10.0 mi Calm Calm - N/A   Partly Cloudy
11:55 AM 69.1 °F - 32.0 °F 25% 30.05 in 10.0 mi WSW 4.6 mph - N/A   Partly Cloudy
12:55 PM 71.1 °F - 35.1 °F 27% 30.03 in 10.0 mi Variable 4.6 mph - N/A   Partly Cloudy
1:55 PM 69.1 °F - 34.0 °F 27% 30.04 in 10.0 mi NW 5.8 mph - N/A   Partly Cloudy
2:55 PM 69.1 °F - 30.0 °F 23% 30.04 in 10.0 mi West 4.6 mph - N/A   Partly Cloudy
3:55 PM 64.0 °F - 42.1 °F 45% 30.05 in 10.0 mi WNW 6.9 mph - N/A   Partly Cloudy
4:55 PM 57.9 °F - 46.9 °F 67% 30.07 in 10.0 mi NW 3.5 mph - N/A   Partly Cloudy
5:55 PM 55.0 °F - 48.0 °F 77% 30.09 in 10.0 mi Calm Calm - N/A   Partly Cloudy
6:55 PM 50.0 °F - 44.1 °F 80% 30.09 in 10.0 mi NNE 3.5 mph - N/A   Clear
7:55 PM 48.0 °F - 43.0 °F 83% 30.08 in 10.0 mi East 5.8 mph - N/A   Clear
8:55 PM 50.0 °F - 43.0 °F 77% 30.08 in 10.0 mi ENE 3.5 mph - N/A   Clear
9:55 PM 48.0 °F - 42.1 °F 80% 30.08 in 10.0 mi NE 5.8 mph - N/A   Clear
10:55 PM 50.0 °F - 42.1 °F 74% 30.09 in 10.0 mi ENE 8.1 mph - N/A   Clear
11:55 PM 48.0 °F - 41.0 °F 77% 30.08 in 10.0 mi Calm Calm - N/A   Clear